TimeCDT,TemperatureF,Dew PointF,Humidity,Sea Level PressureIn,VisibilityMPH,Wind Direction,Wind SpeedMPH,Gust SpeedMPH,PrecipitationIn,Events,Conditions,WindDirDegrees,DateUTC
12:53 AM,66.9,52.0,59,29.77,10.0,South,4.6,-,N/A,,Clear,170,2013-03-17 05:53:00
1:53 AM,64.9,53.1,65,29.78,10.0,South,4.6,-,N/A,,Clear,180,2013-03-17 06:53:00
2:53 AM,64.0,54.0,70,29.78,10.0,SE,3.5,-,N/A,,Clear,140,2013-03-17 07:53:00
3:35 AM,63.0,55.0,75,29.80,10.0,Calm,Calm,-,N/A,,Mostly Cloudy,0,2013-03-17 08:35:00
3:53 AM,64.0,55.9,75,29.78,10.0,SSE,4.6,-,N/A,,Overcast,160,2013-03-17 08:53:00
4:30 AM,64.0,57.0,78,29.79,10.0,SSE,4.6,-,N/A,,Overcast,150,2013-03-17 09:30:00
4:53 AM,64.0,57.0,78,29.77,10.0,SSE,3.5,-,N/A,,Overcast,160,2013-03-17 09:53:00
5:53 AM,64.0,57.0,78,29.77,10.0,SSE,5.8,-,N/A,,Overcast,160,2013-03-17 10:53:00
6:46 AM,64.0,57.0,78,29.79,10.0,SSE,5.8,-,N/A,,Overcast,160,2013-03-17 11:46:00
6:53 AM,64.0,57.0,78,29.78,10.0,Calm,Calm,-,N/A,,Overcast,0,2013-03-17 11:53:00
7:53 AM,63.0,57.0,81,29.78,6.0,SE,5.8,-,0.00,,Haze,140,2013-03-17 12:53:00
8:39 AM,63.0,57.0,81,29.78,10.0,South,6.9,-,N/A,,Overcast,170,2013-03-17 13:39:00
8:53 AM,63.0,57.0,81,29.78,10.0,South,6.9,-,N/A,,Overcast,170,2013-03-17 13:53:00
9:49 AM,64.4,57.2,77,29.79,10.0,South,5.8,-,N/A,,Overcast,190,2013-03-17 14:49:00
9:53 AM,64.0,57.9,80,29.78,10.0,South,8.1,-,N/A,,Overcast,190,2013-03-17 14:53:00
10:53 AM,64.9,59.0,81,29.78,10.0,South,10.4,19.6,N/A,,Overcast,180,2013-03-17 15:53:00
11:43 AM,66.9,59.0,76,29.78,10.0,South,10.4,-,N/A,,Overcast,170,2013-03-17 16:43:00
11:53 AM,66.9,59.0,76,29.76,10.0,SSW,6.9,-,N/A,,Overcast,200,2013-03-17 16:53:00
12:53 PM,71.1,59.0,66,29.73,10.0,SSW,9.2,-,N/A,,Overcast,200,2013-03-17 17:53:00
1:53 PM,73.9,57.0,55,29.68,10.0,SSW,12.7,-,N/A,,Overcast,200,2013-03-17 18:53:00
2:53 PM,73.9,55.9,53,29.66,10.0,SSW,10.4,23.0,N/A,,Overcast,200,2013-03-17 19:53:00
3:53 PM,73.9,57.0,55,29.64,10.0,SSW,9.2,-,N/A,,Overcast,200,2013-03-17 20:53:00
4:53 PM,75.0,57.0,53,29.62,10.0,SSW,9.2,-,N/A,,Overcast,200,2013-03-17 21:53:00
5:53 PM,73.9,57.0,55,29.61,10.0,South,10.4,-,N/A,,Mostly Cloudy,180,2013-03-17 22:53:00
6:53 PM,70.0,55.9,61,29.63,10.0,WSW,10.4,-,N/A,,Overcast,250,2013-03-17 23:53:00
7:53 PM,66.0,54.0,65,29.66,10.0,West,10.4,-,N/A,,Overcast,260,2013-03-18 00:53:00
8:53 PM,62.1,53.1,72,29.67,9.0,West,4.6,-,N/A,,Scattered Clouds,280,2013-03-18 01:53:00
9:53 PM,60.1,52.0,75,29.67,8.0,Calm,Calm,-,N/A,,Mostly Cloudy,0,2013-03-18 02:53:00
10:53 PM,57.0,51.1,81,29.68,8.0,Calm,Calm,-,N/A,,Mostly Cloudy,0,2013-03-18 03:53:00
11:53 PM,54.0,51.1,90,29.69,7.0,Calm,Calm,-,N/A,,Clear,0,2013-03-18 04:53:00